• In Czech Republic
  • List of Countries
  • For 7 days
  • Water Temperature
  • Satellite Maps
  • Weather Map
  • Weather Widgets
  • user-avatar
    Login

    Hourly Weather Pshenychne

    Today, 20 August, Monday

    Time Temperature Precipitation Wind Pressure Humidity
    00:00 +19°C° 0 mm 3 mps 752 mmHg 38%
    01:00 +18°C° 0 mm 3 mps 752 mmHg 39%
    02:00 +17°C° 0 mm 3 mps 752 mmHg 41%
    03:00 +17°C° 0 mm 3 mps 752 mmHg 43%
    04:00 +17°C° 0 mm 3 mps 752 mmHg 44%
    05:00 +16°C° 0 mm 3 mps 752 mmHg 45%
    06:00 +19°C° 0 mm 4 mps 752 mmHg 41%
    07:00 +21°C° 0 mm 4 mps 753 mmHg 36%
    08:00 +25°C° 0 mm 4 mps 753 mmHg 32%
    09:00 +26°C° 0 mm 4 mps 753 mmHg 28%
    10:00 +27°C° 0 mm 4 mps 752 mmHg 25%
    11:00 +29°C° 0 mm 4 mps 752 mmHg 21%
    12:00 +29°C° 0 mm 4 mps 752 mmHg 20%
    13:00 +30°C° 0 mm 4 mps 752 mmHg 19%
    14:00 +30°C° 0 mm 4 mps 752 mmHg 18%
    15:00 +30°C° 0 mm 4 mps 751 mmHg 18%
    16:00 +30°C° 0 mm 3 mps 751 mmHg 19%
    17:00 +29°C° 0 mm 3 mps 751 mmHg 19%
    18:00 +27°C° 0 mm 3 mps 751 mmHg 22%
    19:00 +25°C° 0 mm 2 mps 751 mmHg 25%
    20:00 +21°C° 0 mm 2 mps 751 mmHg 28%
    21:00 +21°C° 0 mm 2 mps 751 mmHg 29%
    22:00 +20°C° 0 mm 2 mps 751 mmHg 30%
    23:00 +21°C° 0 mm 1 mps 751 mmHg 31%

    Tomorrow, 21 August, Tuesday

    Time Temperature Precipitation Wind Pressure Humidity
    00:00 +19°C° 0 mm 2 mps 750 mmHg 32%
    01:00 +19°C° 0 mm 2 mps 750 mmHg 33%
    02:00 +18°C° 0 mm 2 mps 750 mmHg 34%
    03:00 +18°C° 0 mm 2 mps 750 mmHg 35%
    04:00 +18°C° 0 mm 2 mps 750 mmHg 36%
    05:00 +17°C° 0 mm 2 mps 750 mmHg 37%
    06:00 +20°C° 0 mm 2 mps 750 mmHg 33%
    07:00 +24°C° 0 mm 2 mps 750 mmHg 29%
    08:00 +27°C° 0 mm 2 mps 750 mmHg 25%
    09:00 +28°C° 0 mm 2 mps 750 mmHg 23%
    10:00 +29°C° 0 mm 2 mps 750 mmHg 20%
    11:00 +31°C° 0 mm 2 mps 750 mmHg 18%
    12:00 +32°C° 0 mm 2 mps 750 mmHg 17%
    13:00 +32°C° 0 mm 2 mps 750 mmHg 16%
    14:00 +34°C° 0 mm 2 mps 749 mmHg 15%
    15:00 +32°C° 0 mm 2 mps 749 mmHg 16%
    16:00 +32°C° 0 mm 2 mps 749 mmHg 16%
    17:00 +32°C° 0 mm 2 mps 749 mmHg 17%
    18:00 +29°C° 0 mm 2 mps 749 mmHg 21%
    19:00 +27°C° 0 mm 1 mps 749 mmHg 25%
    20:00 +24°C° 0 mm 1 mps 749 mmHg 28%
    21:00 +23°C° 0 mm 1 mps 749 mmHg 29%
    22:00 +23°C° 0 mm 1 mps 749 mmHg 31%
    23:00 +22°C° 0 mm 1 mps 749 mmHg 32%

    Day after tomorrow, 22 August, Wednesday

    Time Temperature Precipitation Wind Pressure Humidity
    00:00 +22°C° 0 mm 1 mps 749 mmHg 32%
    01:00 +22°C° 0 mm 1 mps 749 mmHg 32%
    02:00 +22°C° 0 mm 1 mps 749 mmHg 32%
    03:00 +20°C° 0 mm 2 mps 749 mmHg 32%
    04:00 +20°C° 0 mm 2 mps 749 mmHg 33%
    05:00 +20°C° 0 mm 2 mps 749 mmHg 33%
    06:00 +23°C° 0 mm 2 mps 749 mmHg 34%
    07:00 +26°C° 0 mm 3 mps 749 mmHg 35%
    08:00 +28°C° 0 mm 3 mps 750 mmHg 36%
    09:00 +29°C° 0 mm 4 mps 750 mmHg 36%
    10:00 +30°C° 0 mm 4 mps 750 mmHg 37%
    11:00 +33°C° 0 mm 4 mps 750 mmHg 37%
    12:00 +32°C° 0 mm 5 mps 750 mmHg 38%
    13:00 +32°C° 0 mm 5 mps 750 mmHg 38%
    14:00 +32°C° 0 mm 5 mps 750 mmHg 38%
    15:00 +32°C° 0 mm 5 mps 750 mmHg 37%
    16:00 +30°C° 0 mm 5 mps 750 mmHg 36%
    17:00 +30°C° 0 mm 6 mps 750 mmHg 35%
    18:00 +28°C° 0 mm 5 mps 750 mmHg 38%
    19:00 +26°C° 0 mm 5 mps 751 mmHg 41%
    20:00 +25°C° 0 mm 5 mps 751 mmHg 44%
    21:00 +23°C° 0 mm 5 mps 751 mmHg 45%
    22:00 +22°C° 0 mm 6 mps 752 mmHg 46%
    23:00 +21°C° 0 mm 6 mps 752 mmHg 47%

    23 August, Thursday

    Time Temperature Precipitation Wind Pressure Humidity
    00:00 +21°C° 0 mm 6 mps 752 mmHg 47%
    01:00 +20°C° 0 mm 5 mps 752 mmHg 47%
    02:00 +19°C° 0 mm 5 mps 752 mmHg 48%
    03:00 +19°C° 0 mm 5 mps 752 mmHg 49%
    04:00 +17°C° 0 mm 5 mps 753 mmHg 50%
    05:00 +16°C° 0 mm 5 mps 753 mmHg 51%
    06:00 +19°C° 0 mm 5 mps 753 mmHg 46%
    07:00 +21°C° 0 mm 5 mps 753 mmHg 41%
    08:00 +23°C° 0 mm 6 mps 753 mmHg 36%
    09:00 +25°C° 0 mm 5 mps 753 mmHg 33%
    10:00 +27°C° 0 mm 5 mps 753 mmHg 29%
    11:00 +28°C° 0 mm 5 mps 753 mmHg 26%
    12:00 +29°C° 0 mm 5 mps 753 mmHg 24%
    13:00 +30°C° 0 mm 5 mps 753 mmHg 22%
    14:00 +30°C° 0 mm 5 mps 752 mmHg 20%
    15:00 +30°C° 0 mm 5 mps 752 mmHg 20%
    16:00 +29°C° 0 mm 5 mps 752 mmHg 21%
    17:00 +29°C° 0 mm 5 mps 752 mmHg 22%
    18:00 +27°C° 0 mm 5 mps 752 mmHg 25%
    19:00 +23°C° 0 mm 4 mps 752 mmHg 29%
    20:00 +21°C° 0 mm 4 mps 752 mmHg 32%
    21:00 +21°C° 0 mm 4 mps 752 mmHg 33%
    22:00 +20°C° 0 mm 4 mps 752 mmHg 34%
    23:00 +19°C° 0 mm 4 mps 752 mmHg 34%

    24 August, Friday

    Time Temperature Precipitation Wind Pressure Humidity
    00:00 +19°C° 0 mm 4 mps 752 mmHg 35%
    01:00 +19°C° 0 mm 4 mps 752 mmHg 35%
    02:00 +18°C° 0 mm 4 mps 752 mmHg 36%
    03:00 +17°C° 0 mm 5 mps 751 mmHg 37%
    04:00 +17°C° 0 mm 5 mps 751 mmHg 38%
    05:00 +16°C° 0 mm 5 mps 751 mmHg 39%
    06:00 +20°C° 0 mm 5 mps 751 mmHg 36%
    07:00 +22°C° 0 mm 6 mps 751 mmHg 33%
    08:00 +24°C° 0 mm 6 mps 751 mmHg 30%
    09:00 +27°C° 0 mm 6 mps 751 mmHg 28%
    10:00 +29°C° 0 mm 6 mps 751 mmHg 26%
    11:00 +32°C° 0 mm 6 mps 751 mmHg 24%
    12:00 +33°C° 0 mm 5 mps 750 mmHg 24%
    13:00 +34°C° 0 mm 5 mps 750 mmHg 23%
    14:00 +34°C° 0 mm 5 mps 749 mmHg 23%
    15:00 +34°C° 0 mm 5 mps 749 mmHg 23%
    16:00 +33°C° 0 mm 5 mps 749 mmHg 24%
    17:00 +33°C° 0 mm 5 mps 749 mmHg 25%
    18:00 +30°C° 0 mm 4 mps 749 mmHg 28%
    19:00 +28°C° 0 mm 4 mps 749 mmHg 32%
    20:00 +25°C° 0 mm 4 mps 749 mmHg 35%
    21:00 +25°C° 0 mm 4 mps 749 mmHg 34%
    22:00 +25°C° 0 mm 5 mps 749 mmHg 33%
    23:00 +23°C° 0 mm 6 mps 749 mmHg 32%

    25 August, Saturday

    Time Temperature Precipitation Wind Pressure Humidity
    00:00 +23°C° 0 mm 5 mps 749 mmHg 32%
    01:00 +22°C° 0 mm 5 mps 749 mmHg 32%
    02:00 +21°C° 0 mm 5 mps 749 mmHg 32%
    03:00 +21°C° 0 mm 5 mps 749 mmHg 32%
    04:00 +21°C° 0 mm 5 mps 749 mmHg 32%
    05:00 +20°C° 0 mm 5 mps 749 mmHg 33%
    06:00 +22°C° 0 mm 5 mps 749 mmHg 31%
    07:00 +25°C° 0 mm 5 mps 749 mmHg 30%
    08:00 +27°C° 0 mm 6 mps 749 mmHg 29%
    09:00 +29°C° 0 mm 6 mps 749 mmHg 27%
    10:00 +30°C° 0 mm 6 mps 749 mmHg 25%
    11:00 +33°C° 0 mm 6 mps 749 mmHg 23%
    12:00 +33°C° 0 mm 5 mps 749 mmHg 22%
    13:00 +34°C° 0 mm 5 mps 748 mmHg 21%
    14:00 +34°C° 0 mm 5 mps 748 mmHg 20%
    15:00 +34°C° 0 mm 5 mps 748 mmHg 20%
    16:00 +33°C° 0 mm 5 mps 748 mmHg 20%
    17:00 +33°C° 0 mm 5 mps 748 mmHg 20%
    18:00 +29°C° 0 mm 4 mps 748 mmHg 23%
    19:00 +27°C° 0 mm 4 mps 748 mmHg 26%
    20:00 +25°C° 0 mm 3 mps 748 mmHg 29%
    21:00 +23°C° 0 mm 4 mps 748 mmHg 29%
    22:00 +23°C° 0 mm 4 mps 748 mmHg 29%
    23:00 +22°C° 0 mm 4 mps 748 mmHg 29%
    Show more